Location: Le Gr�zie
(43.6000°N, 13.5000°E)
Time: 09:00:50
(UTC+00:00)

Daily predictions for brighter satellites

Satellite Brightness Start Highest point End
(mag) Time Altitude Azimuth Time Altitude Azimuth Time Altitude Azimuth
Cosmos 2074 Rocket 4.2 18:00:07 10° N 18:06:20 57° ENE 18:12:31 10° SSE
SJ-11-01 4.3 18:08:35 10° SSE 18:13:15 68° ENE 18:17:59 10° N
ATLAS 2AS CENTAUR R/B 3.0 18:10:11 10° NNW 18:17:47 68° NE 18:24:43 10° SE
SeaSat 1 2.6 18:15:04 10° NNE 18:20:01 80° WNW 18:24:56 10° SSW
ATLAS 5 CENTAUR R/B 1.6 18:16:33 10° SSW 18:20:30 51° ESE 18:24:53 10° NE
STARLINK-1234 4.1 18:17:57 10° NW 18:20:48 31° NNE 18:23:37 10° E
STARLINK-1209 4.0 18:18:24 10° NW 18:21:16 32° NNE 18:24:05 10° E
STARLINK-1233 4.4 18:18:52 10° NW 18:21:36 26° NNE 18:24:20 10° E
STARLINK-1212 4.4 18:19:21 10° NW 18:22:04 26° NNE 18:24:47 10° E
STARLINK-1105 4.4 18:19:46 10° NW 18:22:31 27° NNE 18:25:15 10° E
H-2A R/B 2.1 18:17:48 10° SSE 18:22:55 63° ENE 18:27:55 10° N
STARLINK-1206 4.4 18:20:15 10° NW 18:22:58 26° NNE 18:25:41 10° E
STARLINK-1247 4.4 18:20:43 10° NW 18:23:26 27° NNE 18:26:09 10° E
STARLINK-1227 4.4 18:21:06 10° NW 18:23:51 27° NNE 18:26:36 10° E
STARLINK-1218 4.4 18:21:36 10° NW 18:24:20 27° NNE 18:27:04 10° E
STARLINK-1226 4.4 18:22:02 10° NW 18:24:47 27° NNE 18:27:30 10° E
STARLINK-1254 4.4 18:22:27 10° NW 18:25:14 27° NNE 18:27:57 10° E
COSMOS 2455 3.5 18:19:47 10° NNW 18:25:25 39° NE 18:30:47 11° ESE
STARLINK-1215 4.3 18:22:57 10° NW 18:25:42 27° NNE 18:28:22 10° E
HJ-1C 4.0 18:22:25 10° S 18:25:44 60° W 18:29:05 10° NNW
STARLINK-1231 4.3 18:23:24 10° NW 18:26:09 27° NNE 18:28:48 11° E
STARLINK-1232 4.3 18:24:18 10° NW 18:27:04 28° NNE 18:29:41 11° E
STARLINK-1217 4.3 18:24:45 10° NW 18:27:31 28° NNE 18:30:07 11° E
STARLINK-1208 4.3 18:25:09 10° NW 18:27:57 28° NNE 18:30:33 11° E
Abrixas rocket 2.8 18:25:08 10° WNW 18:27:57 40° NNE 18:30:32 12° E
STARLINK-1229 4.3 18:25:38 10° NW 18:28:25 28° NNE 18:30:58 11° E
STARLINK-1271 4.3 18:26:05 10° NW 18:28:52 28° NNE 18:31:25 11° E
STARLINK-1270 4.3 18:26:33 10° NW 18:29:20 28° NNE 18:31:51 12° E
STARLINK-1154 4.3 18:27:00 10° NW 18:29:47 29° NNE 18:32:17 12° E
Cosmos 1140 Rocket 3.7 18:25:08 10° S 18:30:03 46° ESE 18:34:58 10° NNE
STARLINK-1197 4.2 18:27:53 10° NW 18:30:41 29° NNE 18:33:09 12° E
STARLINK-1189 4.2 18:28:19 10° NW 18:31:07 29° NNE 18:33:34 12° E
STARLINK-1198 4.2 18:28:48 10° NW 18:31:36 29° NNE 18:34:01 12° E
STARLINK-1188 4.2 18:29:13 10° NW 18:32:01 29° NNE 18:34:26 13° E
Ariane Rocket 3.0 18:27:07 10° SSE 18:32:11 87° ENE 18:37:16 10° NNW
STARLINK-1235 3.9 18:29:49 10° NW 18:32:46 35° NNE 18:35:09 14° E
STARLINK-1187 4.1 18:30:15 10° NW 18:33:10 33° NNE 18:35:33 13° E
STARLINK-1199 4.2 18:31:09 10° NW 18:34:00 30° NNE 18:36:21 13° E
STARLINK-1191 4.2 18:31:36 10° NW 18:34:27 31° NNE 18:36:47 13° E
Cosmos 1943 Rocket 4.3 18:29:54 10° NW 18:34:32 28° WSW 18:39:11 10° SSW
STARLINK-1210 4.1 18:32:04 10° NW 18:34:55 31° NNE 18:37:13 14° E
STARLINK-1221 4.1 18:32:30 10° NW 18:35:22 31° NNE 18:37:40 14° E
STARLINK-1219 4.1 18:32:57 10° NW 18:35:49 31° NNE 18:38:06 14° E
STARLINK-1222 4.1 18:33:24 10° NW 18:36:16 31° NNE 18:38:31 14° E
STARLINK-1211 4.1 18:33:52 10° NW 18:36:44 32° NNE 18:38:58 14° E
STARLINK-1214 4.1 18:34:18 10° NW 18:37:11 32° NNE 18:39:24 14° E
Meteor 1-16 Rocket 4.3 18:32:00 10° SSW 18:37:25 81° W 18:43:03 10° N
STARLINK-1245 4.1 18:34:47 10° NW 18:37:38 32° NNE 18:39:48 15° E
CZ-2C R/B 2.8 18:32:57 10° SSE 18:37:47 77° ENE 18:42:33 10° N
Cosmos 614 Rocket 4.0 18:32:40 10° SSW 18:37:53 89° SE 18:43:08 10° NNE
STARLINK-1238 4.1 18:35:11 10° NW 18:38:05 32° NNE 18:40:15 15° E
ERBS 4.5 18:36:42 10° NNW 18:38:58 17° NNE 18:41:14 10° ENE
STARLINK-1205 4.0 18:36:07 10° NW 18:39:00 32° NNE 18:41:07 15° E
STARLINK-1204 4.0 18:36:35 10° NW 18:39:27 32° NNE 18:41:33 15° E
APEX 4.2 18:33:32 10° NNW 18:39:57 80° ENE 18:45:04 10° SSE
MONITOR-E 3.6 18:38:39 10° SSE 18:41:16 77° E 18:43:55 10° N
STARLINK-29 3.1 18:39:52 10° WSW 18:43:03 75° NW 18:46:16 10° NE
Cosmos 1190 Rocket 4.0 18:38:40 10° S 18:43:56 71° ESE 18:49:12 10° NNE
SJ-6B 2.9 18:40:15 10° SSE 18:44:20 68° ENE 18:48:27 10° N
Resurs 1-3 4.3 18:41:32 14° SE 18:44:48 35° ENE 18:48:48 10° N
Aureole 1 Rocket 4.1 18:37:29 10° SSW 18:45:02 87° ESE 18:50:56 10° NNE
Cosmos 1300 3.6 18:43:12 12° SSE 18:46:07 27° E 18:49:25 10° NNE
BREEZE-M DEB (TANK) 3.7 18:42:39 10° WNW 18:48:55 62° NNE 18:50:46 20° E
Cosmos 2369 Rocket 4.2 18:47:07 10° NW 18:51:48 27° WSW 18:56:27 10° SSW
SL-24 R/B 3.8 18:49:01 10° NNE 18:52:52 52° E 18:56:27 10° S
CZ-2C R/B 3.7 18:51:08 10° NNE 18:55:46 59° E 19:00:18 10° S
Cosmos 2058 Rocket 3.0 18:53:58 10° S 18:58:28 78° E 19:02:59 10° N
Cosmos 1726 Rocket 4.1 18:56:48 10° SSW 19:01:10 63° W 19:05:35 10° N
SL-08 RB Rocket 3.7 18:56:46 10° SSE 19:01:19 87° ENE 19:05:59 10° NNW
STARLINK-1228 2.7 19:01:41 10° NW 19:04:38 73° NNE 19:05:31 40° ESE
Cosmos 1461 3.2 19:00:09 10° NW 19:04:43 78° WSW 19:08:01 19° SSE
DMSP B5D2-2 4.1 19:01:48 10° NNE 19:06:58 58° E 19:12:07 10° S
Cosmos 921 Rocket 2.8 19:02:48 10° NNW 19:07:01 77° ENE 19:09:43 21° SSE
Cosmos 1703 4.4 19:03:23 10° NNW 19:07:11 45° W 19:10:58 10° SSW
SL-4 R/B 3.5 19:04:39 10° WNW 19:07:35 26° NNW 19:10:34 10° NE
Cosmos 2341 Rocket 4.1 19:01:48 10° N 19:08:07 60° ENE 19:13:22 15° SSE
Cosmos 407 Rocket 4.1 19:04:32 10° SSW 19:09:35 59° WNW 19:14:40 10° NNE
Cosmos 1908 4.5 19:05:58 10° SSW 19:09:39 44° WNW 19:13:24 10° N
Cosmos 1340 Rocket 3.1 19:06:04 10° SSW 19:10:05 71° W 19:14:07 10° N
FREGAT/IRIS 4.4 19:07:56 10° SSW 19:10:18 27° W 19:12:42 10° NW
CZ-4C R/B 4.4 19:05:59 10° NNW 19:11:02 21° NNE 19:16:38 10° ENE
Cosmos 2228 4.5 19:08:06 10° SSW 19:12:09 39° WNW 19:16:15 10° N
Cosmos 676 Rocket 3.9 19:07:52 10° SSW 19:13:08 77° ESE 19:18:24 10° NNE
COSMOS 2406 4.1 19:13:01 25° ESE 19:13:20 25° ESE 19:17:53 10° NE
RESURS DK-1 4.4 19:11:16 10° NNE 19:13:32 14° NE 19:14:21 14° ENE
STARLINK-1201 3.3 19:10:29 10° NW 19:13:43 56° NNE 19:14:33 41° E
ATLAS 5 CENTAUR R/B 4.4 19:12:45 10° S 19:17:49 17° SSE 19:18:54 17° SE
MetOp-A 4.1 19:13:31 14° SSE 19:18:12 89° ENE 19:23:36 10° NNW
Cosmos 2218 Rocket 4.4 19:13:19 10° N 19:19:16 45° ENE 19:22:17 27° SE
STARLINK-1203 4.4 19:15:32 10° NW 19:19:33 42° NNE 19:21:13 28° ENE
Resurs 01 Rocket 1.7 19:17:43 31° SE 19:19:39 56° ENE 19:23:59 10° N
Cosmos 2058 3.7 19:17:10 10° NNE 19:20:53 31° ENE 19:21:10 31° E
Cosmos 220 Rocket 4.5 19:16:55 10° N 19:21:04 43° ENE 19:22:11 35° ESE
STARLINK-1225 4.5 19:18:23 10° NW 19:22:20 41° NNE 19:23:51 29° ENE
STARLINK-52 4.3 19:20:29 10° W 19:23:31 39° NNW 19:25:57 14° NE
MOS 1 Rocket 3.5 19:18:07 10° NNE 19:23:35 76° ESE 19:29:00 10° S
CZ-2C R/B 2.4 19:19:41 10° NNE 19:24:52 72° ESE 19:30:05 10° S
BREEZE M DEB (TANK) 2.7 19:22:48 10° SW 19:25:49 72° SE 19:34:06 10° ENE
Cosmos 1812 Rocket 3.9 19:25:20 39° ESE 19:25:59 42° E 19:30:05 10° NNE
SPOT 3 Rocket 3.7 19:22:44 14° S 19:27:19 72° WSW 19:32:32 10° NNW
STARLINK-1230 4.4 19:23:20 10° NW 19:27:19 43° NNE 19:28:37 32° ENE
ARGOS 4.3 19:23:49 10° SSW 19:28:53 42° W 19:33:59 10° NNW
Cosmos 962 Rocket 4.4 19:22:48 10° N 19:28:59 87° W 19:34:09 15° S
Cosmos 1697 Rocket 4.1 19:26:49 10° N 19:31:10 22° NE 19:32:44 20° ENE
SL-8 Rocket 4.0 19:25:20 10° N 19:31:40 67° E 19:35:13 27° SSE
STARLINK-1243 4.3 19:28:18 10° NW 19:32:18 46° NNE 19:33:24 36° ENE
Iridium 2 3.6 19:33:27 57° ESE 19:33:46 60° E 19:37:32 10° NNE
Cosmos 2181 Rocket 3.9 19:28:19 10° S 19:34:31 71° E 19:40:40 10° NNE
Cosmos 1954 Rocket 4.2 19:29:32 10° SSW 19:34:46 73° WNW 19:40:00 10° NNE
STARLINK-1236 4.1 19:33:16 10° NW 19:37:18 48° NNE 19:38:11 41° ENE
Cosmos 1741 Rocket 4.1 19:41:05 38° SSE 19:42:43 52° ESE 19:47:53 10° NNE
Meteor 2-1 Rocket 4.4 19:41:06 32° SSE 19:43:41 57° E 19:49:30 10° NNE
Cosmos 2366 rocket 3.9 19:39:38 10° N 19:45:46 67° E 19:48:11 38° SSE
Cosmos 1076 Rocket 3.4 19:41:47 10° N 19:46:04 63° E 19:46:20 61° ESE
Landsat 7 4.3 19:46:17 40° ENE 19:46:32 40° ENE 19:50:58 10° N
BREEZE-M DEB (TANK) 3.9 19:42:02 10° SW 19:45:56 40° SSW 19:45:56 40° SSW
STARLINK-1269 3.9 19:43:12 10° NW 19:47:17 55° NNE 19:47:44 52° ENE
Cosmos 1959 Rocket 4.4 19:43:42 10° N 19:50:02 75° E 19:52:35 38° SSE
Cosmos 1656 4.1 19:44:49 10° NNW 19:50:18 47° ENE 19:51:23 42° E
SPOT 1/Viking Rocket 4.1 19:50:06 40° E 19:50:37 41° ENE 19:55:30 10° N
Cosmos 1763 Rocket 3.6 19:45:46 10° NNW 19:50:50 51° ENE 19:51:29 48° E
STARLINK-1200 3.8 19:48:10 10° NW 19:52:17 60° NNE 19:52:31 58° NE
Cosmos 1455 4.3 19:56:33 18° NE 19:56:33 18° NE 19:57:44 10° NNE
STARLINK-1192 3.7 19:53:08 10° NW 19:57:16 64° NNE 19:57:18 64° NE
STARLINK-1233 4.3 19:54:30 10° WNW 19:56:38 35° W 19:56:38 35° W
STARLINK-1212 4.4 19:54:58 10° WNW 19:57:04 34° W 19:57:04 34° W
STARLINK-1105 4.4 19:55:24 10° WNW 19:57:31 34° W 19:57:31 34° W
STARLINK-1206 4.5 19:55:53 10° WNW 19:57:55 33° W 19:57:55 33° W
STARLINK-1247 4.5 19:56:21 10° WNW 19:58:22 32° W 19:58:22 32° W
Iridium 4 Rocket 3.0 19:55:16 10° N 19:59:06 67° NE 19:59:06 67° NE
STARLINK-1227 4.5 19:56:45 10° WNW 19:58:47 33° W 19:58:47 33° W
USA 234 3.2 19:53:29 10° NE 19:59:56 57° SE 20:06:20 10° SSW
Cosmos 1980 Rocket 3.7 19:57:08 10° N 20:01:19 21° NE 20:02:02 20° ENE
Cosmos 1174 4.1 19:57:52 10° NNW 20:02:12 83° ENE 20:02:39 72° SE
STARLINK-1244 3.7 19:58:12 10° NW 20:02:10 68° NNE 20:02:10 68° NNE
Cosmos 1892 3.1 19:59:02 10° N 20:02:13 56° NNE 20:02:13 56° NNE
Abrixas rocket 4.2 20:00:45 10° WNW 20:02:07 23° W 20:02:07 23° W
ATLAS 5 CENTAUR R/B 4.0 20:02:00 10° W 20:05:27 23° NW 20:09:16 10° NNE
Cosmos-2242 4.3 20:08:42 30° NE 20:08:42 30° NE 20:11:07 10° NNE
STARLINK-1138 3.8 20:03:05 10° NW 20:06:52 68° NNW 20:06:52 68° NNW
Cosmos 1825 4.1 20:04:05 10° NNE 20:05:39 20° NNE 20:05:39 20° NNE
ATLAS 2AS CENTAUR R/B 4.3 20:02:06 10° NW 20:08:06 28° WSW 20:13:01 13° SSW
COSMOS 2455 3.8 20:05:48 10° NW 20:11:21 40° WSW 20:13:57 27° SSW
STARLINK-1143 3.9 20:08:03 10° NW 20:11:39 64° NW 20:11:39 64° NW
Cosmos 489 Rocket 4.4 20:09:32 10° NNW 20:15:42 63° ENE 20:16:28 58° E
ERBS 4.0 20:12:20 10° NW 20:14:20 33° NW 20:14:20 33° NW
STARLINK-1241 4.1 20:13:04 10° NW 20:16:28 58° NW 20:16:28 58° NW
IGS 5A 4.0 20:20:27 53° N 20:20:27 53° N 20:23:41 10° N
STARLINK-1239 4.3 20:18:02 10° NW 20:21:14 52° WNW 20:21:14 52° WNW
Spot 2 Rocket 3.6 20:22:15 63° SW 20:22:49 70° WSW 20:27:56 10° NNW
ATLAS CENTAUR R/B 3.1 20:20:05 10° NNW 20:22:10 22° NNE 20:22:10 22° NNE
Cosmos 1821 Rocket 4.1 20:20:10 10° N 20:26:29 58° ENE 20:26:40 58° E
USA 32 4.0 20:21:29 10° N 20:26:23 73° NE 20:26:23 73° NE
Cosmos 1850 Rocket 4.3 20:24:22 31° SW 20:26:44 63° WNW 20:31:54 10° NNE
Terra 2.9 20:29:52 34° NE 20:29:52 34° NE 20:33:06 10° N
Cosmos 841 Rocket 3.7 20:24:49 10° NNW 20:29:32 59° NE 20:29:32 59° NE
SPOT 5 3.7 20:31:40 36° NNE 20:31:40 36° NNE 20:34:27 10° N
Cosmos 2082 Rocket 3.9 20:34:09 20° NE 20:34:09 20° NE 20:35:59 10° NE
Cosmos 2278 4.4 20:27:29 10° NNW 20:32:29 40° NE 20:32:29 40° NE
Meteor 2-10 Rocket 3.6 20:33:52 73° NNE 20:33:52 73° NNE 20:38:47 10° N
SL-08 R/B 4.5 20:29:35 10° N 20:35:44 76° W 20:36:45 62° SSW
Cosmos 1833 Rocket 3.3 20:39:02 44° NE 20:39:02 44° NE 20:42:54 10° NNE
ERS-1 Rocket 3.3 20:47:00 63° NNW 20:47:00 63° NNW 20:51:14 10° NNW
SL-4 R/B 4.4 20:45:08 10° NW 20:46:33 18° NNW 20:46:33 18° NNW
RESURS DK-1 4.0 20:47:54 10° NNW 20:50:15 32° NW 20:50:15 32° NW
Cosmos 1570 Rocket 4.5 20:49:56 10° NNW 20:54:32 59° WNW 20:54:32 59° WNW
Resurs 01 Rocket 4.1 20:55:17 13° WSW 20:56:29 14° W 20:58:53 10° WNW
COSMOS 2406 3.9 20:54:52 31° WSW 20:57:17 50° WNW 21:02:52 10° NNE
CZ-4C R/B 3.1 20:53:56 10° NNW 21:01:02 60° NE 21:01:49 57° ENE
Cosmos 1697 Rocket 3.3 21:10:01 10° NNW 21:14:29 53° NW 21:14:29 53° NW
Cosmos 2369 4.3 21:10:09 10° NNW 21:14:33 53° NW 21:14:33 53° NW
SL-16 R/B 3.7 21:32:32 10° N 21:36:11 29° NNE 21:36:11 29° NNE
Cosmos 2360 Rocket 4.3 21:34:17 10° N 21:37:32 17° NE 21:37:32 17° NE
USA 234 3.9 21:36:36 10° NE 21:42:53 51° NNW 21:49:09 10° WSW
Cosmos 2322 Rocket 3.8 21:39:35 10° N 21:43:04 28° NNE 21:43:04 28° NNE
Cosmos 1980 Rocket 3.3 21:40:16 10° NNW 21:43:48 39° NW 21:43:48 39° NW
Terra 4.3 22:08:45 17° WNW 22:08:45 17° WNW 22:10:17 10° NW
Mayak 1.7 22:04:14 10° N 22:04:58 14° NNW 22:04:58 14° NNW
Cosmos 2082 Rocket 3.8 22:15:56 31° NNW 22:15:56 31° NNW 22:20:01 10° N
Cosmos 2219 Rocket 4.4 22:31:25 10° N 22:34:42 17° NE 22:34:42 17° NE
Cosmos 2344 4.5 22:28:12 10° NW 22:38:09 68° WSW 22:38:35 67° SW
CZ-4C R/B 4.2 22:42:46 10° NW 22:47:00 30° WNW 22:47:00 30° WNW
SL-16 R/B 4.4 23:16:34 10° NW 23:18:03 18° NW 23:18:03 18° NW
Cosmos 2360 Rocket 4.1 23:17:06 10° NNW 23:19:17 25° NNW 23:19:17 25° NNW
Cosmos 2322 Rocket 4.4 23:23:30 10° NW 23:24:52 17° NW 23:24:52 17° NW
Cosmos 2333 Rocket 3.9 23:39:33 10° NNW 23:42:25 29° N 23:42:25 29° N
Cosmos 2237 Rocket 4.2 23:41:33 10° N 23:45:57 22° NE 23:46:25 22° ENE
SL-16 R/B 3.8 23:48:42 34° ENE 23:48:42 34° ENE 23:53:57 10° N
